�N����,����,�~����,�C��,���x,�C��,����,���ϕ���,�ő�u�ԕ���,�ő厞����,���˗�,�I�_���x,�n�����x,�ő啗���N��,DTYPE
"23/12/09","00:10",0.0,5.1,94.2,1015.6,296.7,1.3,2.0,311.8,0.00,4.3,8.3,"00:08:02",1
"23/12/09","00:20",0.0,5.3,94.3,1015.6,295.7,1.0,1.3,277.5,0.00,4.5,8.8,"00:13:52",1
"23/12/09","00:30",0.0,5.4,94.4,1015.6,301.5,1.6,2.5,314.1,0.00,4.6,8.5,"00:22:20",1
"23/12/09","00:40",0.0,5.2,94.6,1015.6,303.6,1.8,2.5,317.8,0.00,4.4,8.6,"00:31:30",1
"23/12/09","00:50",0.0,5.2,94.9,1015.9,307.4,1.7,2.1,311.4,0.00,4.5,8.6,"00:45:40",1
"23/12/09","01:00",0.0,5.4,95.0,1015.9,312.3,2.2,2.7,321.0,0.00,4.7,8.5,"00:59:58",1
"23/12/09","01:10",0.0,5.6,95.2,1015.9,313.2,2.5,2.8,318.8,0.00,4.9,8.5,"01:05:08",1
"23/12/09","01:20",0.0,5.7,95.2,1015.9,301.7,1.8,2.2,311.8,0.00,5.0,8.4,"01:10:48",1
"23/12/09","01:30",0.0,5.8,95.3,1016.1,292.1,1.3,2.0,306.3,0.00,5.1,8.4,"01:25:28",1
"23/12/09","01:40",0.0,5.8,95.4,1015.9,289.8,1.5,1.7,272.9,0.00,5.2,8.5,"01:32:32",1
"23/12/09","01:50",0.0,5.7,95.4,1015.6,301.8,1.7,2.5,313.0,0.00,5.1,8.6,"01:42:24",1
"23/12/09","02:00",0.0,5.7,95.6,1016.1,300.2,1.8,2.5,316.5,0.00,5.1,8.6,"01:58:36",1
"23/12/09","02:10",0.0,5.7,95.7,1015.6,301.5,2.1,2.6,317.1,0.00,5.1,8.4,"02:03:08",1
"23/12/09","02:20",0.0,5.7,95.8,1016.1,308.3,2.2,2.5,311.1,0.00,5.1,8.6,"02:14:54",1
"23/12/09","02:30",0.0,5.7,95.9,1015.9,298.6,1.8,2.2,312.3,0.00,5.1,8.5,"02:25:02",1
"23/12/09","02:40",0.0,5.9,96.0,1015.6,308.8,2.1,2.6,316.9,0.00,5.4,8.6,"02:39:36",1
"23/12/09","02:50",0.0,6.1,96.0,1015.9,299.8,2.0,2.4,318.6,0.00,5.6,8.6,"02:41:36",1
"23/12/09","03:00",0.0,6.2,96.0,1015.4,295.0,1.6,2.5,316.6,0.00,5.7,8.7,"02:52:00",1
"23/12/09","03:10",0.0,6.3,96.1,1015.2,301.4,2.0,2.4,315.7,0.00,5.8,8.6,"03:06:48",1
"23/12/09","03:20",0.0,6.4,96.2,1015.4,295.4,1.8,2.5,318.2,0.00,5.9,8.4,"03:10:40",1
"23/12/09","03:30",0.0,6.6,96.2,1015.6,287.7,1.7,2.1,272.8,0.00,6.1,8.5,"03:27:20",1
"23/12/09","03:40",0.0,6.6,96.2,1015.6,287.8,1.8,2.2,308.6,0.00,6.1,8.6,"03:36:24",1
"23/12/09","03:50",0.0,6.7,96.2,1015.9,285.3,1.3,1.8,271.6,0.00,6.2,8.6,"03:40:08",1
"23/12/09","04:00",0.0,6.6,96.2,1015.6,294.4,0.6,2.0,314.4,0.00,6.1,8.8,"03:58:56",1
"23/12/09","04:10",0.0,6.4,96.3,1015.9,304.3,2.2,3.4,320.8,0.00,5.9,8.7,"04:09:12",1
"23/12/09","04:20",0.0,6.3,96.3,1015.9,313.8,2.2,2.8,321.4,0.00,5.8,8.8,"04:10:08",1
"23/12/09","04:30",0.0,6.1,96.4,1015.9,292.2,1.7,2.0,305.1,0.00,5.6,8.7,"04:23:28",1
"23/12/09","04:40",0.0,5.9,96.5,1015.6,303.3,1.8,2.8,323.1,0.00,5.4,8.5,"04:36:50",1
"23/12/09","04:50",0.0,6.0,96.6,1016.1,305.9,2.3,2.9,318.5,0.00,5.5,8.8,"04:40:56",1
"23/12/09","05:00",0.0,6.2,96.7,1015.6,300.9,1.2,2.0,300.7,0.00,5.8,8.7,"04:51:20",1
"23/12/09","05:10",0.0,6.3,96.7,1015.9,297.3,2.1,2.7,308.7,0.00,5.9,8.7,"05:02:24",1
"23/12/09","05:20",0.0,6.3,96.7,1015.6,287.3,1.0,1.7,298.8,0.00,5.9,8.7,"05:10:08",1
"23/12/09","05:30",0.0,6.5,96.7,1016.1,311.6,1.6,2.7,311.3,0.00,6.1,8.7,"05:28:48",1
"23/12/09","05:40",0.0,6.4,96.6,1016.4,291.9,2.0,2.5,322.7,0.00,5.9,8.7,"05:34:24",1
"23/12/09","05:50",0.0,6.0,96.6,1016.1,295.4,1.7,2.0,303.3,0.00,5.5,8.8,"05:41:36",1
"23/12/09","06:00",0.0,5.7,96.8,1016.4,322.2,2.2,2.6,326.1,0.00,5.3,8.6,"05:51:16",1
"23/12/09","06:10",0.0,5.6,96.8,1016.4,309.0,1.7,2.6,338.5,0.00,5.2,8.7,"06:02:54",1
"23/12/09","06:20",0.0,5.3,97.1,1016.6,299.8,1.6,2.2,318.9,0.00,4.9,8.6,"06:19:50",1
"23/12/09","06:30",0.0,5.3,97.2,1016.4,306.7,1.8,2.4,320.9,0.00,4.9,8.6,"06:20:34",1
"23/12/09","06:40",0.0,5.2,97.2,1016.1,294.3,1.6,2.0,316.5,0.00,4.8,8.7,"06:39:48",1
"23/12/09","06:50",0.0,5.4,97.4,1016.1,311.7,2.0,2.4,320.3,0.00,5.1,8.7,"06:41:18",1
"23/12/09","07:00",0.0,5.6,97.4,1016.1,280.7,1.6,2.0,273.6,0.00,5.3,8.7,"06:59:48",1
"23/12/09","07:10",0.0,6.1,97.4,1016.6,292.2,2.0,2.1,301.0,0.00,5.8,8.5,"07:00:56",1
"23/12/09","07:20",0.0,6.4,97.2,1016.6,299.2,1.6,2.1,309.5,0.00,6.0,8.7,"07:10:24",1
"23/12/09","07:30",0.0,6.3,97.2,1016.8,278.4,1.2,2.2,289.9,0.00,5.9,8.9,"07:20:16",1
"23/12/09","07:40",0.0,6.4,97.3,1016.4,297.6,1.8,2.7,318.4,0.01,6.0,8.6,"07:30:02",1
"23/12/09","07:50",0.0,6.6,97.3,1017.1,316.1,2.3,2.8,316.4,0.01,6.2,8.6,"07:45:20",1
"23/12/09","08:00",0.0,6.6,97.3,1017.1,292.7,2.0,2.6,312.9,0.02,6.2,8.5,"07:51:12",1
"23/12/09","08:10",0.0,7.0,97.4,1017.3,263.6,1.6,2.4,259.2,0.05,6.7,8.6,"08:02:00",1
"23/12/09","08:20",0.0,7.9,97.4,1017.5,309.2,1.5,2.2,264.4,0.11,7.6,8.8,"08:11:12",1
"23/12/09","08:30",0.0,8.7,97.2,1017.3,320.5,1.0,2.2,319.9,0.13,8.3,8.7,"08:21:44",1
"23/12/09","08:40",0.0,9.2,96.3,1017.5,265.4,0.7,1.1,263.5,0.16,8.7,8.7,"08:36:48",1
"23/12/09","08:50",0.0,10.2,96.5,1017.5,254.2,0.5,1.0,243.8,0.18,9.7,8.7,"08:40:08",1
"23/12/09","09:00",0.0,10.0,95.4,1018.2,226.5,0.6,1.2,240.7,0.21,9.3,8.7,"08:58:12",1
"23/12/09","09:10",0.0,10.2,94.5,1018.5,216.0,1.1,2.1,223.1,0.23,9.4,8.9,"09:05:02",1
"23/12/09","09:20",0.0,11.1,93.3,1018.7,247.8,0.8,2.1,217.5,0.25,10.1,8.5,"09:11:20",1
"23/12/09","09:30",0.0,11.7,91.5,1018.7,291.4,0.5,0.9,290.7,0.17,10.4,8.8,"09:24:16",1
"23/12/09","09:40",0.0,11.7,89.7,1019.0,256.3,0.8,1.7,249.4,0.19,10.1,8.9,"09:38:06",1
"23/12/09","09:50",0.0,12.2,87.0,1018.7,281.5,1.0,1.9,315.6,0.24,10.1,8.9,"09:43:28",1
"23/12/09","10:00",0.0,12.7,83.3,1018.2,248.1,0.6,1.4,240.9,0.26,10.0,8.9,"09:54:08",1
"23/12/09","10:10",0.0,13.3,79.5,1018.2,211.1,1.0,2.1,221.6,0.36,9.9,9.0,"10:06:08",1
"23/12/09","10:20",0.0,14.1,75.9,1018.0,199.8,1.1,2.1,214.3,0.43,10.0,9.0,"10:17:44",1
"23/12/09","10:30",0.0,14.4,73.0,1017.8,218.8,1.1,2.1,224.6,0.39,9.7,9.1,"10:20:08",1
"23/12/09","10:40",0.0,14.5,72.2,1017.8,208.0,1.1,1.9,207.6,0.29,9.6,9.1,"10:37:20",1
"23/12/09","10:50",0.0,15.1,71.0,1017.3,198.9,0.7,1.6,221.9,0.42,9.9,9.5,"10:40:24",1
"23/12/09","11:00",0.0,15.7,68.6,1017.1,234.6,1.0,2.0,244.3,0.43,10.0,9.4,"10:53:12",1
"23/12/09","11:10",0.0,16.1,67.5,1016.8,174.9,0.8,1.9,234.2,0.44,10.1,9.6,"11:04:48",1
"23/12/09","11:20",0.0,16.2,66.1,1016.6,167.2,1.0,2.6,201.2,0.44,9.9,9.7,"11:17:44",1
"23/12/09","11:30",0.0,16.7,64.3,1016.4,191.6,1.0,1.8,158.8,0.45,10.0,9.8,"11:22:24",1
"23/12/09","11:40",0.0,16.7,63.8,1016.1,164.7,1.2,3.2,111.2,0.45,9.9,10.0,"11:37:20",1
"23/12/09","11:50",0.0,17.1,63.6,1015.9,208.5,0.8,2.4,124.5,0.44,10.2,10.0,"11:46:16",1
"23/12/09","12:00",0.0,17.3,63.0,1015.6,210.6,1.0,2.9,223.7,0.44,10.2,10.0,"11:52:16",1
"23/12/09","12:10",0.0,17.3,63.0,1015.4,152.8,1.2,2.6,226.9,0.40,10.2,10.3,"12:01:28",1
"23/12/09","12:20",0.0,17.6,63.3,1015.4,174.1,0.8,1.7,134.9,0.39,10.6,10.4,"12:10:40",1
"23/12/09","12:30",0.0,17.9,63.5,1015.2,206.3,0.6,1.7,234.7,0.38,10.9,10.6,"12:28:48",1
"23/12/09","12:40",0.0,18.0,61.9,1014.9,235.9,1.0,2.5,227.7,0.40,10.6,10.5,"12:38:56",1
"23/12/09","12:50",0.0,18.0,61.1,1015.4,238.9,0.6,1.6,246.3,0.29,10.4,10.5,"12:41:04",1
"23/12/09","13:00",0.0,18.1,60.7,1014.9,167.3,0.7,2.6,107.3,0.33,10.4,10.6,"12:58:40",1
"23/12/09","13:10",0.0,18.0,60.9,1015.4,90.0,1.0,1.8,125.1,0.26,10.4,10.8,"13:03:36",1
"23/12/09","13:20",0.0,18.0,61.0,1015.2,165.4,0.6,1.3,127.0,0.25,10.4,10.8,"13:13:20",1
"23/12/09","13:30",0.0,18.1,60.4,1014.9,197.8,0.8,1.9,125.4,0.24,10.4,11.1,"13:29:36",1
"23/12/09","13:40",0.0,18.5,59.8,1014.9,305.7,0.7,1.8,313.2,0.29,10.6,11.1,"13:34:40",1
"23/12/09","13:50",0.0,18.7,59.5,1014.7,328.7,1.0,1.9,325.8,0.27,10.7,11.1,"13:47:20",1
"23/12/09","14:00",0.0,18.5,60.6,1014.7,213.1,0.7,1.7,122.5,0.19,10.8,11.3,"13:51:52",1
"23/12/09","14:10",0.0,18.5,60.3,1014.5,97.4,0.7,1.8,82.5,0.19,10.7,11.2,"14:06:16",1
"23/12/09","14:20",0.0,18.5,61.7,1014.0,289.5,0.6,1.3,244.0,0.15,11.1,11.2,"14:16:40",1
"23/12/09","14:30",0.0,18.3,61.9,1014.2,240.7,1.1,2.0,225.0,0.15,10.9,11.3,"14:28:40",1
"23/12/09","14:40",0.0,18.2,62.4,1014.2,275.4,0.8,1.7,248.8,0.13,10.9,11.3,"14:30:08",1
"23/12/09","14:50",0.0,18.3,62.4,1014.2,266.7,0.7,1.2,252.2,0.11,11.0,11.5,"14:48:48",1
"23/12/09","15:00",0.0,18.2,62.6,1014.2,265.3,0.7,1.4,247.0,0.08,11.0,11.4,"14:52:48",1
"23/12/09","15:10",0.0,18.2,63.2,1014.7,329.2,0.7,1.1,321.3,0.09,11.1,11.6,"15:00:08",1
"23/12/09","15:20",0.0,18.3,63.4,1014.5,309.4,1.0,1.6,302.4,0.08,11.3,11.5,"15:18:16",1
"23/12/09","15:30",0.0,17.9,65.0,1014.7,309.5,0.5,1.3,335.8,0.06,11.3,11.7,"15:21:12",1
"23/12/09","15:40",0.0,17.3,66.9,1014.7,307.0,1.0,1.9,339.3,0.04,11.1,11.6,"15:32:48",1
"23/12/09","15:50",0.0,16.9,68.8,1015.2,295.7,1.1,1.9,335.9,0.03,11.2,11.7,"15:42:56",1
"23/12/09","16:00",0.0,16.5,70.1,1014.9,308.5,1.1,2.1,315.9,0.03,11.1,11.6,"15:53:36",1
"23/12/09","16:10",0.0,16.1,70.9,1014.9,287.1,1.0,1.9,336.1,0.02,10.9,11.6,"16:00:40",1
"23/12/09","16:20",0.0,15.7,71.1,1015.4,288.3,1.3,2.8,315.8,0.01,10.5,11.7,"16:18:38",1
"23/12/09","16:30",0.0,15.6,71.6,1015.4,292.1,1.6,2.4,325.3,0.00,10.5,11.5,"16:28:24",1
"23/12/09","16:40",0.0,15.0,72.8,1015.4,304.0,1.3,2.6,317.0,0.00,10.2,11.5,"16:32:12",1
"23/12/09","16:50",0.0,14.6,74.0,1015.4,296.4,1.5,2.6,318.7,0.00,10.1,11.6,"16:42:22",1
"23/12/09","17:00",0.0,14.2,75.2,1015.6,289.0,1.5,2.6,254.1,0.00,9.9,11.5,"16:55:20",1
"23/12/09","17:10",0.0,13.9,76.5,1015.6,288.0,1.6,2.6,342.3,0.00,9.9,11.7,"17:00:56",1
"23/12/09","17:20",0.0,13.4,77.7,1015.6,291.5,1.3,1.9,307.0,0.00,9.6,11.5,"17:17:36",1
"23/12/09","17:30",0.0,13.1,79.2,1015.9,280.3,1.2,1.6,276.7,0.00,9.6,11.5,"17:25:36",1
"23/12/09","17:40",0.0,12.7,80.0,1015.9,275.5,1.0,1.6,259.1,0.00,9.4,11.4,"17:30:56",1
"23/12/09","17:50",0.0,12.7,81.1,1015.9,288.9,1.5,2.1,294.9,0.00,9.6,11.3,"17:49:54",1
"23/12/09","18:00",0.0,12.7,81.9,1015.9,293.9,1.7,2.8,310.4,0.00,9.7,11.3,"17:56:48",1
"23/12/09","18:10",0.0,12.5,82.3,1015.9,283.6,1.6,2.0,298.0,0.00,9.6,11.3,"18:06:20",1
"23/12/09","18:20",0.0,12.2,82.9,1015.9,304.0,1.7,3.1,313.7,0.00,9.4,11.3,"18:13:28",1
"23/12/09","18:30",0.0,12.0,83.5,1015.6,294.8,1.6,2.1,310.0,0.00,9.3,11.1,"18:29:08",1
"23/12/09","18:40",0.0,11.9,83.9,1015.9,295.1,1.8,2.2,317.0,0.00,9.3,11.1,"18:38:50",1
"23/12/09","18:50",0.0,11.8,84.1,1015.9,283.8,1.6,2.1,254.3,0.00,9.2,11.3,"18:48:48",1
"23/12/09","19:00",0.0,11.7,84.5,1016.1,292.2,1.6,1.9,311.4,0.00,9.2,11.3,"18:55:00",1
"23/12/09","19:10",0.0,11.6,84.7,1016.4,292.4,1.6,2.6,296.9,0.00,9.2,11.2,"19:08:24",1
"23/12/09","19:20",0.0,11.5,84.9,1016.1,291.4,1.6,2.1,285.0,0.00,9.1,11.1,"19:10:46",1
"23/12/09","19:30",0.0,11.5,85.1,1016.1,301.2,1.8,2.8,321.5,0.00,9.1,10.9,"19:22:32",1
"23/12/09","19:40",0.0,11.4,85.2,1016.4,325.3,1.6,2.4,313.2,0.00,9.0,10.8,"19:32:46",1
"23/12/09","19:50",0.0,10.9,85.2,1016.1,309.7,1.8,2.4,316.4,0.00,8.6,11.0,"19:41:46",1
"23/12/09","20:00",0.0,10.4,85.7,1016.4,302.8,1.6,2.2,324.6,0.00,8.2,11.0,"19:52:40",1
"23/12/09","20:10",0.0,10.1,86.3,1016.1,293.5,1.0,1.4,285.7,0.00,8.0,11.1,"20:00:24",1
"23/12/09","20:20",0.0,10.2,86.9,1016.4,333.3,0.8,2.4,323.0,0.00,8.2,10.9,"20:17:52",1
"23/12/09","20:30",0.0,9.8,87.4,1016.4,311.3,1.3,2.5,330.9,0.00,7.8,10.9,"20:27:20",1
"23/12/09","20:40",0.0,9.2,87.9,1016.6,299.1,1.5,2.5,323.1,0.00,7.3,10.8,"20:31:04",1
"23/12/09","20:50",0.0,9.2,88.7,1016.1,288.1,1.3,1.9,264.1,0.00,7.5,10.7,"20:49:20",1
"23/12/09","21:00",0.0,9.4,89.1,1016.6,286.9,1.3,2.1,258.7,0.00,7.7,10.8,"20:50:16",1
"23/12/09","21:10",0.0,9.2,89.6,1016.6,319.0,2.0,2.6,333.9,0.00,7.6,10.8,"21:06:40",1
"23/12/09","21:20",0.0,8.7,90.1,1016.8,299.0,1.3,1.9,317.7,0.00,7.2,10.8,"21:18:08",1
"23/12/09","21:30",0.0,8.6,90.5,1016.8,303.6,1.6,2.1,312.4,0.00,7.2,10.6,"21:25:12",1
"23/12/09","21:40",0.0,8.3,90.8,1016.6,306.0,1.5,2.0,316.9,0.00,6.9,10.8,"21:31:12",1
"23/12/09","21:50",0.0,8.1,91.1,1017.1,294.4,1.2,1.8,316.1,0.00,6.8,10.6,"21:42:40",1
"23/12/09","22:00",0.0,7.9,91.4,1017.1,289.4,1.1,1.6,278.1,0.00,6.6,10.7,"21:55:52",1
"23/12/09","22:10",0.0,7.8,91.8,1016.6,310.7,2.3,3.2,320.4,0.00,6.6,10.5,"22:09:20",1
"23/12/09","22:20",0.0,7.6,92.1,1016.6,293.5,1.8,2.8,320.8,0.00,6.4,10.5,"22:12:40",1
"23/12/09","22:30",0.0,7.5,92.6,1016.6,308.0,2.3,2.8,318.8,0.00,6.4,10.3,"22:25:44",1
"23/12/09","22:40",0.0,7.5,92.8,1016.8,301.2,2.0,2.7,318.7,0.00,6.5,10.4,"22:32:16",1
"23/12/09","22:50",0.0,7.1,93.1,1017.1,286.5,1.5,1.8,284.8,0.00,6.1,10.4,"22:41:52",1
"23/12/09","23:00",0.0,7.1,93.4,1017.3,299.2,2.0,3.3,322.2,0.00,6.1,10.2,"22:52:56",1
"23/12/09","23:10",0.0,6.9,93.6,1017.1,296.9,1.7,2.4,313.3,0.00,6.0,10.3,"23:04:00",1
"23/12/09","23:20",0.0,6.8,94.0,1016.8,307.6,2.5,3.2,320.8,0.00,5.9,10.3,"23:15:04",1
"23/12/09","23:30",0.0,6.5,94.1,1016.8,296.3,1.6,2.1,304.6,0.00,5.7,10.2,"23:20:08",1
"23/12/09","23:40",0.0,6.4,94.5,1016.6,295.8,1.6,2.1,309.3,0.00,5.6,10.1,"23:38:48",1
"23/12/09","23:50",0.0,7.2,94.4,1016.6,297.5,2.0,2.4,299.9,0.00,6.4,10.2,"23:40:56",1
"23/12/09","24:00",0.0,6.9,94.6,1016.6,309.3,2.3,2.9,319.1,0.00,6.1,10.1,"23:50:40",1
